Wind_Speed
21 17 15 14 12 11 11 10 9 9 9 9 9 9 10 10 10 10 11 11 10 10 10 10 10 10 10 9 9 9 9 9 10 10 11 11 11 11 11 11 12 12 12 13 13 13 13 13 13 13 14 15 16 15 15 15 14 15 16 16 16 16 16
21 17 15 14 13 12 11 10 11 10 10 11 10 10 11 11 12 11 11 10 10 9 9 9 9 9 9 9 10 10 10 10 10 11 11 11 11 10 10 9 10 12 12 12 13 14 14 14 14 15 16 16 16 16 16 15 15 15 16 16 16 15 16
21 18 16 16 15 13 11 10 10 11 11 11 10 9 10 11 12 12 12 11 11 10 10 10 10 10 10 10 11 11 11 11 11 12 12 12 11 11 10 9 10 11 11 12 14 15 15 15 16 16 17 16 16 16 15 15 15 16 16 15 14 15 15
22 20 18 17 16 14 11 10 10 11 11 10 9 9 10 10 11 12 12 12 12 12 12 12 12 12 12 13 13 14 14 14 14 14 14 14 13 12 11 10 11 12 12 13 15 15 15 16 16 17 17 16 16 16 16 15 16 16 16 14 14 14 15
25 23 21 20 19 15 13 11 11 11 10 10 9 10 10 11 11 11 11 12 12 13 13 13 14 14 14 15 15 15 15 16 16 15 15 15 15 14 12 12 12 13 14 14 14 14 14 15 16 17 16 16 16 16 16 16 16 16 15 14 13 13 14
28 26 25 24 22 18 14 13 13 12 11 11 11 11 12 12 12 11 12 12 12 12 13 13 13 13 14 14 14 13 14 15 15 15 15 15 15 14 13 13 13 14 14 14 14 14 14 15 16 17 17 17 17 17 17 17 17 16 15 14 14 13 14
28 28 27 26 23 19 16 14 14 14 13 13 13 12 12 12 12 12 12 12 12 12 12 12 12 13 13 13 13 13 12 12 12 12 12 12 12 12 12 13 13 14 14 15 15 14 13 14 16 17 18 18 18 18 18 18 18 17 15 15 14 14 13
28 28 27 26 24 21 18 16 16 15 15 14 14 13 13 12 12 12 11 11 11 12 12 12 12 13 13 13 13 13 11 10 10 10 9 9 10 10 11 12 13 14 14 15 15 14 14 15 17 19 19 19 18 17 17 18 18 17 16 15 14 14 13
26 25 25 24 23 21 19 18 17 16 15 15 14 13 13 13 12 12 12 11 11 11 12 12 11 11 11 11 11 11 11 10 10 10 10 10 10 10 11 12 13 14 14 15 15 15 16 17 19 20 19 18 18 17 16 16 17 17 16 15 14 14 14
22 21 21 21 21 21 20 19 18 17 16 15 14 14 14 13 13 12 12 12 12 11 10 10 10 10 9 8 8 9 9 10 10 11 11 10 10 11 12 13 13 14 14 15 16 17 18 19 19 19 19 18 18 18 17 17 17 16 15 15 15 14 14
19 18 19 19 20 21 20 19 18 17 16 15 14 14 14 14 13 13 12 12 12 11 10 9 9 9 8 7 6 6 7 7 8 9 10 10 10 11 12 12 13 14 15 16 17 18 18 19 19 19 18 18 18 18 18 18 18 17 16 16 16 15 15
15 15 16 18 18 18 17 17 17 17 16 15 15 14 14 14 14 13 13 13 13 12 10 9 9 9 7 6 5 5 5 5 6 7 8 9 10 11 12 13 14 15 15 16 17 18 18 18 19 18 18 18 17 17 18 19 19 20 19 18 18 17 17
14 14 15 17 17 15 14 14 14 15 15 15 15 14 15 14 14 14 13 13 13 13 12 11 11 10 8 6 5 5 5 5 5 6 6 7 9 10 12 13 14 15 16 16 17 17 17 18 18 18 18 18 18 18 19 20 20 21 21 20 19 18 18
16 16 16 17 17 15 14 13 14 14 15 15 14 14 15 15 14 15 15 14 14 14 13 12 12 11 9 7 6 5 5 5 5 5 6 6 8 9 11 12 13 14 15 16 16 17 17 18 18 18 18 18 19 19 19 20 21 21 20 20 20 19 18
18 18 18 18 18 17 16 15 15 16 16 16 15 15 16 16 16 16 16 15 15 14 14 13 12 11 9 7 6 6 5 6 6 6 7 7 8 8 10 11 12 13 14 15 16 16 17 17 18 18 18 18 19 19 19 20 20 19 19 19 19 19 18
20 20 19 19 20 20 19 18 18 18 18 18 17 17 18 18 18 18 17 16 15 15 14 13 12 11 10 8 7 7 7 7 7 7 8 8 8 9 9 9 10 11 12 13 14 15 15 16 16 16 16 16 17 17 17 17 17 17 17 18 18 18 17
22 21 20 20 22 22 21 21 21 21 21 20 19 19 19 20 19 19 18 16 15 15 15 15 14 13 12 11 10 9 9 8 8 8 9 9 9 9 9 9 10 10 11 11 12 13 13 13 13 14 14 14 14 15 15 15 15 15 16 17 17 18 18
22 20 19 21 24 24 23 24 24 23 22 21 20 20 20 21 21 19 18 17 17 17 16 16 16 16 15 13 12 11 11 10 10 10 10 10 10 10 10 10 10 11 11 11 11 11 11 11 11 12 12 12 13 13 14 14 14 15 16 17 17 18 20
22 20 20 22 23 24 25 26 25 24 23 23 22 21 20 21 21 20 19 18 18 18 18 18 17 17 16 15 14 13 13 12 11 11 12 12 12 12 11 11 11 11 11 11 12 12 12 12 12 12 12 12 12 13 14 14 15 15 16 16 17 18 20
22 23 24 25 24 24 25 25 24 23 24 24 23 21 21 21 21 20 19 18 18 18 19 19 18 17 17 16 15 15 14 13 13 13 14 15 15 14 14 14 14 14 14 14 14 14 15 15 15 16 16 16 15 15 15 16 16 16 16 17 19 20 21
21 23 26 27 27 25 24 23 22 23 23 23 23 23 22 22 22 20 20 19 19 19 20 20 19 19 18 18 17 16 16 16 16 16 17 17 17 17 17 17 17 17 17 17 17 17 17 18 19 20 20 20 19 18 17 17 18 19 20 21 21 22 23
21 22 26 28 28 26 25 25 25 25 23 23 24 24 24 24 23 22 21 21 20 20 21 21 20 20 19 19 19 19 19 19 19 19 19 19 20 19 19 19 18 18 18 18 18 19 19 19 20 21 22 22 22 22 21 20 20 20 21 21 22 22 23
21 22 24 27 28 27 27 28 27 26 25 24 25 26 26 25 24 24 23 22 21 21 21 21 21 21 20 20 20 21 21 21 21 21 21 21 21 21 21 20 20 19 19 19 19 19 19 19 20 21 22 23 24 24 23 21 21 21 22 22 23 24 24
20 21 21 22 24 26 27 26 24 25 26 26 27 27 27 26 25 25 24 24 23 22 22 22 22 23 23 23 23 23 23 23 23 24 24 23 23 23 23 22 22 21 21 21 21 20 21 21 21 22 23 23 24 24 24 24 24 24 25 26 27 27 28
21 20 17 16 19 22 24 22 21 23 26 27 28 28 27 26 25 25 25 25 24 23 23 23 24 24 25 25 25 25 26 26 26 26 26 26 25 25 25 25 24 24 23 23 23 23 23 23 24 25 25 25 26 26 27 28 28 29 29 29 30 31 32
22 21 18 16 17 19 22 22 21 22 23 23 24 26 26 26 26 26 26 25 25 25 25 25 25 26 27 27 28 28 29 29 29 29 28 28 28 28 28 28 27 27 26 26 26 25 25 26 27 28 28 29 30 31 32 32 33 33 34 36 36 36 37
24 24 23 21 20 21 23 24 23 22 22 23 24 26 26 26 26 26 26 26 27 26 26 26 27 28 29 30 30 30 31 31 31 31 31 31 31 31 31 31 31 31 30 30 29 28 27 27 28 29 30 31 33 34 35 36 36 38 40 41 42 42 42
26 27 26 25 25 26 27 26 26 25 26 27 29 29 28 27 26 26 26 27 27 27 27 28 29 30 31 32 32 32 32 33 33 33 34 34 34 35 35 36 35 35 35 34 34 33 31 30 31 31 32 34 35 37 38 39 40 40 41 43 44 45 45
28 29 29 28 29 30 30 29 29 30 31 31 30 29 28 26 25 25 26 27 29 30 31 31 31 32 33 34 34 35 35 36 37 37 37 38 38 38 39 40 40 40 40 39 37 36 35 34 34 33 34 36 38 39 40 41 41 41 41 43 45 47 48
28 30 30 30 30 30 29 30 31 32 33 32 31 30 30 30 30 30 30 30 32 34 35 36 36 36 36 36 36 37 38 39 40 41 42 42 42 42 43 43 43 43 43 41 39 38 39 38 36 36 38 40 40 41 40 41 42 43 44 45 46 48 49
31 32 32 31 31 30 30 30 32 33 34 34 33 33 34 35 37 38 37 35 35 37 39 40 40 39 39 39 40 41 42 43 44 45 45 45 46 47 47 46 45 45 44 42 41 42 43 42 41 41 42 42 42 42 43 45 47 48 47 46 47 48 50
31 32 32 32 32 32 33 33 34 35 36 37 37 38 38 39 41 42 42 41 40 40 42 43 43 43 43 43 44 44 45 46 47 48 48 48 48 49 49 49 48 47 45 45 45 46 45 45 45 44 45 45 45 46 47 48 50 52 51 49 49 50 51
31 32 33 33 33 34 36 36 37 37 38 39 40 41 42 43 43 44 45 45 45 45 46 47 47 47 47 47 48 48 49 50 50 51 51 51 51 51 51 51 50 48 47 48 49 48 46 46 47 49 50 52 52 51 51 52 55 56 55 53 52 52 52
34 34 35 35 35 36 38 39 39 40 40 40 40 41 43 45 45 46 46 47 49 49 50 50 50 50 50 50 51 51 51 51 51 52 52 52 52 52 52 53 53 52 52 52 52 52 50 51 52 54 56 56 56 56 57 58 59 59 57 56 55 54 53
41 39 38 39 39 40 40 41 42 43 43 44 44 45 45 47 48 48 49 49 50 50 49 49 49 50 50 51 51 50 50 50 51 51 51 50 50 50 51 52 54 55 55 55 55 55 56 57 57 57 59 60 61 62 61 60 60 60 58 57 56 54 54
46 46 46 46 46 46 45 43 43 44 45 46 47 48 48 47 48 48 49 50 50 50 50 50 51 52 53 53 53 53 53 54 54 55 54 54 53 54 55 55 56 57 58 59 59 59 59 60 60 61 64 65 65 65 63 60 60 61 59 57 56 55 54
49 49 49 49 49 48 48 47 45 46 47 48 49 50 50 50 51 51 52 52 52 53 53 54 55 55 56 56 56 56 56 56 57 58 58 58 58 59 59 60 61 62 62 63 64 64 64 64 65 65 67 67 67 66 64 62 62 62 60 58 57 55 53
Wind_Direction
198 207 217 218 219 217 215 220 226 229 233 235 235 233 231 228 222 216 211 211 216 223 229 235 239 243 246 248 250 252 254 255 258 259 257 257 256 256 259 262 264 266 267 267 268 267 264 260 256 251 249 251 255 259 260 259 258 260 266 270 272 272 271
207 218 222 221 222 219 217 222 224 224 226 226 225 225 226 224 222 220 218 216 216 219 224 231 237 242 248 253 256 257 258 259 261 263 263 264 265 265 267 265 260 261 264 265 267 268 265 264 262 259 256 256 258 260 259 259 260 263 267 271 275 276 275
213 223 226 222 219 216 216 219 219 221 221 218 217 221 224 223 222 223 225 228 229 230 232 235 239 241 246 252 256 258 261 262 264 266 268 269 269 270 270 265 258 258 259 258 259 260 261 262 261 259 258 259 260 259 260 261 263 265 268 271 274 275 275
222 231 230 222 217 216 218 222 222 218 216 213 213 219 223 222 220 221 225 230 235 238 239 241 243 243 244 248 252 256 259 261 263 266 270 271 270 271 270 263 258 258 257 254 254 256 257 258 258 258 259 260 259 259 261 262 262 263 265 266 267 268 270
228 234 231 225 222 221 223 229 226 216 211 211 212 217 221 223 222 220 223 227 231 237 240 243 245 245 245 247 250 255 258 260 262 264 267 269 271 273 273 269 264 264 263 260 259 258 256 256 257 259 260 260 260 260 262 262 261 261 261 260 259 260 262
229 232 231 228 226 225 229 231 223 211 206 208 212 215 218 222 224 222 224 228 232 236 238 241 244 245 245 246 248 251 255 259 261 263 264 268 272 275 276 275 272 270 269 267 264 260 258 258 259 262 263 263 263 264 263 262 261 260 259 257 254 253 255
227 228 229 229 228 227 230 225 213 204 202 205 210 213 215 221 227 226 226 228 231 235 237 236 239 243 246 246 246 246 249 254 257 261 264 269 274 276 277 277 275 274 273 271 269 266 264 264 264 265 265 266 266 266 265 263 263 261 259 257 256 255 255
227 228 229 232 232 228 224 217 206 200 200 203 208 211 214 220 227 230 229 227 228 234 239 241 241 246 249 249 248 246 246 249 252 255 260 266 273 276 277 277 277 276 275 273 271 268 265 263 263 264 264 265 267 267 266 265 265 263 261 260 259 259 259
225 225 227 232 230 222 216 209 202 200 200 202 205 210 212 216 223 229 231 233 233 234 239 243 245 247 247 244 242 242 245 248 252 257 263 270 274 274 272 271 271 270 270 269 267 265 263 261 261 262 263 264 264 262 262 262 262 261 261 263 264 265 265
218 219 222 224 218 210 206 202 199 200 203 204 206 210 211 214 221 226 230 235 237 233 233 238 242 243 237 229 225 229 236 243 251 259 265 269 268 266 264 263 264 263 263 264 265 264 263 261 260 261 260 260 260 259 258 258 258 258 259 262 264 268 269
217 218 218 215 205 198 198 199 199 202 206 209 210 214 215 215 220 225 228 232 234 234 235 239 242 240 229 218 215 218 227 238 248 257 262 265 267 266 264 264 264 263 262 263 264 264 263 261 261 260 259 258 259 259 259 259 261 261 261 261 261 263 266
223 222 218 209 200 195 198 202 204 207 211 213 214 218 221 220 222 225 229 232 234 236 240 244 244 241 234 227 223 221 227 238 249 257 263 268 270 268 266 265 265 263 261 261 261 262 263 263 263 261 260 260 260 261 262 264 265 266 266 265 264 264 266
230 227 221 214 208 207 212 218 220 221 221 221 220 223 227 226 226 228 231 236 239 240 243 247 246 243 242 242 241 235 234 240 248 255 259 263 264 263 263 263 263 262 261 260 259 260 261 262 263 262 262 263 264 264 264 265 266 267 268 268 270 272 273
234 231 228 225 224 227 233 236 237 237 237 235 231 230 233 233 231 233 237 241 246 246 247 248 248 245 242 240 241 241 241 242 246 248 250 250 251 253 256 258 260 260 260 260 259 259 258 259 261 262 263 265 265 266 266 265 265 266 268 269 272 275 275
238 237 237 237 239 242 245 245 244 245 245 244 239 234 235 236 236 237 240 245 251 253 253 251 249 244 239 236 239 244 247 250 251 251 252 250 247 246 249 252 256 258 259 260 260 260 260 260 261 262 264 266 267 268 268 269 270 272 274 274 274 275 275
241 241 243 245 247 248 249 247 246 246 247 247 243 236 234 235 236 238 241 247 254 259 259 256 252 248 245 244 244 247 251 250 250 251 253 252 248 245 244 245 249 253 257 259 260 261 263 263 264 264 264 265 267 268 270 274 277 280 281 280 279 278 279
242 245 247 251 253 253 252 250 248 247 248 250 246 240 235 234 236 240 244 250 258 264 263 259 255 254 253 251 248 249 253 252 252 253 254 254 251 248 246 245 246 249 252 255 258 260 262 263 264 264 263 263 263 264 268 272 276 279 280 280 281 282 284
241 247 254 259 260 259 257 254 251 249 248 251 251 245 239 238 240 244 249 256 262 263 262 257 255 254 253 251 251 253 256 258 258 260 260 260 259 258 257 255 253 253 255 257 260 263 266 269 269 269 268 267 267 266 266 267 268 270 272 275 278 281 284
244 256 263 265 264 262 257 253 252 252 251 252 254 251 246 244 245 249 254 257 258 256 254 252 251 250 251 252 253 255 258 260 261 262 263 264 265 265 265 265 264 264 265 264 264 266 270 273 275 277 278 278 278 278 276 274 272 272 274 277 280 282 284
252 267 272 269 267 264 258 252 250 253 255 255 253 251 248 247 248 250 251 248 247 246 247 246 246 246 247 249 252 255 257 259 261 263 265 266 268 269 272 273 273 273 273 272 272 273 276 279 281 282 282 281 281 283 285 285 284 284 287 291 293 294 293
259 270 272 267 264 261 256 249 248 251 254 256 253 250 249 248 248 247 244 240 240 241 242 242 243 243 245 247 250 253 256 258 261 263 265 267 269 272 274 276 277 279 281 282 283 284 287 289 290 289 287 285 284 285 287 288 287 287 290 293 295 296 297
260 266 265 259 255 254 251 251 253 253 251 251 250 249 248 248 246 243 239 236 236 239 242 244 245 246 248 252 254 257 260 262 264 266 267 270 272 274 276 279 282 286 288 289 290 292 294 296 296 295 292 289 287 287 288 288 286 285 286 289 291 293 296
262 266 263 253 249 251 252 253 256 255 251 248 247 248 248 245 242 240 238 236 236 238 242 246 250 252 254 256 259 261 263 265 267 268 270 271 273 275 278 281 284 286 288 288 289 291 293 294 295 294 293 290 287 285 286 287 287 287 287 288 290 291 293
264 265 259 250 248 251 252 252 254 253 251 248 246 247 246 244 241 240 239 238 238 241 245 249 254 257 258 259 260 262 263 265 266 267 269 270 271 274 276 280 283 284 285 285 286 288 290 292 294 294 292 290 285 282 281 284 287 289 288 288 290 290 291
258 256 247 242 249 252 248 245 249 253 253 252 249 246 243 240 240 241 242 243 244 246 249 252 255 258 259 260 261 262 263 265 266 267 268 268 269 272 274 277 279 280 280 281 283 286 288 291 294 296 295 293 289 286 285 287 289 289 288 288 288 288 290
248 244 238 233 241 247 246 244 248 251 252 252 249 246 243 239 239 242 244 247 248 249 250 252 255 258 260 261 262 263 264 265 267 267 267 268 270 272 274 274 275 276 276 276 277 280 284 288 291 294 295 294 293 291 289 289 289 290 290 289 289 290 293
246 241 237 234 233 237 243 247 247 245 243 241 240 241 241 240 241 243 245 247 248 249 251 253 256 259 260 262 262 263 264 265 266 266 267 268 269 271 274 275 275 275 274 273 272 272 275 280 284 288 290 291 290 288 286 286 287 289 290 290 291 292 293
252 248 244 243 244 246 247 248 246 243 240 238 237 238 237 238 240 243 247 251 253 256 258 259 261 262 262 262 262 262 262 263 264 265 266 267 269 271 273 274 274 275 274 272 269 268 268 271 275 279 283 284 284 284 283 284 284 286 287 288 290 290 289
259 258 257 257 259 259 258 255 251 248 246 245 244 242 237 236 240 246 252 257 260 262 263 263 264 264 264 264 264 264 263 263 265 267 268 268 270 271 272 272 273 273 272 270 268 265 262 264 268 274 277 279 279 279 280 280 280 280 283 285 287 287 287
259 261 263 265 266 266 265 262 258 254 252 251 251 247 240 238 244 254 260 261 261 263 264 264 264 264 265 266 267 266 266 266 268 270 271 271 272 273 275 275 274 273 271 269 266 261 259 261 265 269 273 276 278 278 278 278 278 278 280 282 283 284 285
260 263 265 266 267 267 267 266 264 261 258 257 256 254 250 248 253 260 265 264 262 263 265 265 265 265 266 267 267 267 268 268 270 272 273 274 274 275 277 278 277 276 274 269 264 260 259 260 264 270 275 278 278 279 280 281 281 280 280 281 281 282 283
263 264 264 264 265 265 265 265 265 264 262 260 260 260 260 259 260 264 266 265 264 264 265 266 266 266 267 267 267 267 267 268 269 271 273 273 274 274 274 274 275 275 274 271 266 263 260 261 267 275 278 278 278 280 281 280 279 279 281 281 280 280 281
264 259 257 258 261 263 263 265 267 267 266 263 262 261 261 261 262 264 265 264 264 265 268 268 266 266 266 267 267 267 267 268 268 269 270 271 272 272 272 270 269 268 268 268 267 264 262 263 268 273 275 276 278 280 279 277 278 280 281 280 279 279 280
259 256 255 258 260 260 261 263 266 268 267 266 265 264 263 263 264 265 264 263 264 266 268 267 266 266 266 267 268 268 268 269 269 269 269 270 270 270 270 268 267 265 265 265 265 264 262 262 265 270 274 276 278 278 278 278 279 279 279 279 279 279 279
258 259 259 260 261 262 263 264 266 266 265 265 265 265 265 265 265 265 265 264 264 266 266 265 266 268 268 269 269 268 268 269 270 269 269 269 269 268 268 267 267 266 265 266 266 265 264 262 263 267 271 273 273 275 277 278 277 277 277 278 278 278 278
261 263 264 265 267 268 269 269 267 265 264 264 264 264 265 265 265 265 266 266 267 267 267 267 268 269 269 269 269 268 268 268 269 269 269 269 268 268 267 267 267 267 267 267 267 266 265 265 264 265 267 269 271 273 274 273 273 274 275 275 276 276 276
262 264 266 267 269 269 269 268 265 262 262 262 263 264 266 267 268 269 270 271 271 271 271 271 271 271 271 271 270 270 270 270 269 269 270 269 269 268 268 268 267 267 267 267 266 266 265 265 265 265 266 267 269 271 271 271 271 272 273 273 274 275 276
Height
5780 5781 5782 5782 5783 5783 5783 5784 5784 5785 5785 5786 5786 5786 5787 5787 5788 5789 5789 5790 5790 5791 5791 5792 5792 5793 5793 5793 5792 5792 5792 5793 5793 5793 5794 5794 5794 5794 5794 5794 5793 5793 5793 5793 5793 5794 5794 5793 5793 5792 5791 5790 5789 5789 5789 5790 5790 5791 5790 5790 5790 5790 5790
5778 5779 5780 5780 5781 5781 5782 5782 5783 5783 5784 5784 5784 5785 5785 5786 5787 5788 5788 5789 5789 5790 5790 5790 5791 5792 5792 5792 5792 5792 5791 5792 5792 5792 5792 5792 5793 5793 5793 5793 5792 5792 5792 5792 5792 5792 5792 5792 5791 5791 5790 5789 5788 5788 5788 5788 5789 5789 5788 5788 5788 5788 5788
5776 5777 5777 5778 5779 5780 5780 5781 5781 5781 5781 5782 5782 5783 5784 5785 5786 5786 5787 5788 5788 5789 5789 5789 5790 5791 5791 5791 5791 5790 5790 5790 5790 5791 5791 5791 5791 5792 5792 5792 5791 5791 5791 5791 5790 5791 5791 5790 5790 5789 5788 5788 5787 5787 5787 5788 5788 5787 5786 5786 5786 5786 5785
5774 5774 5775 5776 5777 5778 5778 5778 5779 5779 5779 5780 5781 5781 5782 5783 5784 5785 5786 5786 5787 5787 5788 5788 5789 5789 5789 5789 5789 5789 5789 5789 5789 5790 5790 5790 5790 5790 5791 5791 5790 5790 5790 5789 5789 5790 5790 5789 5789 5788 5787 5787 5786 5786 5786 5786 5786 5785 5784 5784 5784 5784 5783
5772 5772 5773 5774 5775 5776 5776 5777 5777 5777 5778 5778 5779 5780 5781 5782 5782 5783 5784 5784 5785 5785 5786 5787 5787 5788 5788 5788 5787 5787 5787 5787 5788 5788 5788 5789 5789 5789 5789 5790 5789 5789 5788 5788 5789 5789 5789 5789 5788 5787 5786 5786 5785 5785 5785 5785 5784 5783 5783 5783 5782 5782 5781
5769 5770 5771 5772 5773 5774 5774 5775 5775 5775 5776 5777 5778 5779 5780 5780 5781 5782 5782 5783 5783 5784 5784 5785 5785 5786 5786 5786 5786 5786 5786 5786 5786 5786 5787 5787 5787 5788 5788 5788 5788 5788 5787 5787 5788 5788 5788 5788 5787 5786 5785 5785 5784 5784 5784 5783 5783 5782 5781 5781 5780 5780 5780
5766 5767 5769 5770 5771 5772 5772 5773 5773 5774 5775 5775 5776 5777 5778 5779 5779 5780 5781 5781 5782 5782 5782 5783 5784 5784 5784 5784 5784 5784 5784 5784 5784 5785 5785 5786 5786 5786 5786 5786 5786 5786 5786 5786 5786 5787 5787 5787 5786 5785 5784 5784 5783 5783 5783 5782 5782 5781 5780 5780 5779 5779 5778
5764 5765 5766 5767 5768 5769 5770 5771 5772 5772 5773 5774 5775 5776 5777 5778 5778 5778 5779 5780 5781 5781 5781 5781 5782 5782 5782 5782 5782 5782 5783 5783 5783 5784 5784 5785 5785 5785 5785 5785 5785 5785 5785 5785 5785 5785 5786 5785 5784 5783 5783 5783 5783 5783 5782 5782 5781 5780 5779 5779 5778 5778 5777
5762 5763 5763 5764 5765 5767 5768 5769 5770 5771 5772 5773 5774 5775 5776 5776 5776 5777 5778 5779 5779 5780 5780 5780 5780 5780 5780 5780 5780 5780 5781 5782 5782 5783 5783 5783 5784 5784 5784 5784 5784 5784 5784 5783 5783 5784 5784 5783 5782 5781 5781 5781 5781 5781 5781 5781 5780 5779 5779 5778 5777 5777 5776
5759 5760 5760 5761 5763 5764 5766 5767 5768 5769 5770 5772 5773 5774 5775 5775 5775 5776 5776 5777 5777 5778 5778 5778 5778 5778 5778 5778 5778 5778 5779 5780 5781 5781 5782 5782 5783 5783 5783 5783 5782 5782 5782 5782 5782 5782 5782 5781 5780 5780 5780 5780 5780 5780 5780 5779 5779 5779 5778 5777 5777 5776 5775
5756 5757 5758 5759 5760 5762 5763 5765 5766 5767 5768 5770 5771 5772 5773 5773 5774 5774 5775 5776 5776 5776 5777 5777 5777 5776 5776 5776 5776 5777 5777 5778 5779 5779 5780 5780 5781 5781 5781 5781 5781 5781 5781 5781 5780 5780 5779 5779 5778 5779 5779 5779 5779 5778 5778 5778 5778 5777 5777 5777 5776 5776 5775
5756 5757 5758 5759 5760 5761 5762 5763 5764 5765 5766 5768 5769 5770 5771 5772 5772 5773 5773 5774 5775 5775 5775 5775 5775 5775 5774 5774 5775 5775 5775 5776 5777 5777 5778 5779 5779 5779 5779 5779 5779 5779 5779 5779 5778 5778 5777 5777 5777 5777 5777 5777 5777 5777 5776 5776 5776 5776 5775 5775 5774 5774 5773
5756 5757 5757 5758 5759 5760 5761 5762 5762 5763 5764 5766 5767 5768 5769 5770 5771 5771 5772 5773 5773 5773 5774 5774 5774 5773 5773 5773 5773 5773 5774 5774 5775 5775 5776 5777 5777 5778 5777 5777 5777 5777 5777 5776 5776 5776 5776 5776 5776 5776 5776 5776 5776 5775 5775 5774 5774 5774 5773 5773 5772 5772 5771
5755 5756 5756 5757 5758 5759 5759 5760 5761 5762 5763 5764 5765 5767 5767 5768 5769 5770 5771 5771 5772 5772 5772 5772 5772 5772 5772 5772 5772 5772 5772 5773 5773 5774 5774 5775 5776 5776 5776 5776 5776 5776 5775 5775 5775 5775 5775 5775 5775 5775 5774 5774 5774 5773 5773 5773 5772 5772 5771 5771 5770 5770 5770
5753 5754 5754 5755 5756 5757 5758 5759 5760 5760 5761 5762 5763 5765 5765 5766 5767 5768 5769 5769 5770 5770 5770 5771 5771 5771 5771 5771 5771 5771 5771 5771 5772 5772 5772 5773 5773 5774 5774 5774 5774 5774 5774 5774 5774 5774 5774 5774 5774 5773 5773 5773 5772 5772 5771 5771 5771 5770 5770 5769 5769 5769 5768
5750 5751 5752 5753 5754 5755 5756 5757 5758 5759 5759 5760 5761 5762 5763 5764 5765 5765 5766 5767 5767 5768 5768 5769 5769 5769 5769 5769 5769 5770 5770 5770 5770 5770 5770 5770 5770 5771 5771 5772 5772 5772 5772 5772 5772 5773 5773 5773 5773 5772 5772 5772 5771 5771 5770 5770 5769 5768 5768 5767 5767 5767 5766
5749 5750 5751 5752 5752 5754 5755 5756 5756 5757 5757 5758 5759 5760 5760 5761 5762 5763 5763 5764 5765 5766 5766 5767 5767 5767 5767 5767 5767 5767 5767 5767 5767 5767 5767 5768 5768 5768 5768 5769 5769 5770 5770 5770 5770 5770 5770 5771 5771 5770 5770 5770 5770 5769 5769 5768 5768 5767 5766 5766 5765 5765 5764
5747 5748 5749 5750 5751 5752 5753 5754 5754 5754 5755 5756 5756 5757 5758 5758 5759 5760 5761 5762 5763 5763 5764 5764 5765 5765 5765 5765 5765 5765 5765 5765 5765 5765 5765 5765 5765 5766 5766 5766 5766 5767 5767 5767 5768 5768 5768 5768 5768 5768 5768 5767 5767 5767 5767 5767 5766 5766 5765 5764 5764 5763 5763
5745 5746 5747 5748 5749 5750 5750 5751 5752 5753 5754 5754 5754 5754 5755 5756 5756 5757 5758 5759 5760 5760 5761 5762 5762 5762 5763 5763 5763 5763 5763 5763 5763 5763 5763 5763 5764 5764 5764 5764 5764 5765 5765 5765 5765 5765 5765 5765 5765 5765 5765 5765 5765 5765 5764 5764 5764 5764 5763 5763 5762 5762 5761
5743 5744 5744 5745 5745 5747 5747 5748 5750 5751 5751 5752 5752 5752 5753 5753 5753 5754 5755 5756 5757 5757 5758 5759 5759 5760 5760 5760 5760 5760 5761 5761 5761 5761 5762 5762 5762 5762 5762 5763 5763 5763 5763 5763 5763 5763 5763 5763 5763 5763 5763 5762 5762 5762 5762 5761 5761 5760 5760 5759 5759 5759 5758
5741 5742 5742 5742 5743 5744 5744 5745 5747 5748 5748 5749 5749 5750 5750 5750 5751 5751 5752 5753 5753 5754 5755 5755 5756 5756 5757 5757 5758 5758 5758 5759 5759 5759 5760 5760 5760 5760 5760 5760 5760 5760 5760 5760 5760 5760 5760 5760 5760 5759 5759 5759 5759 5759 5758 5758 5757 5756 5756 5756 5755 5755 5754
5739 5739 5739 5739 5740 5741 5742 5743 5743 5744 5745 5746 5747 5747 5747 5748 5748 5748 5749 5749 5750 5751 5751 5752 5753 5753 5754 5755 5755 5755 5756 5756 5756 5756 5757 5757 5757 5757 5757 5757 5757 5757 5757 5757 5757 5757 5757 5756 5756 5756 5756 5755 5755 5754 5754 5754 5753 5753 5753 5753 5752 5752 5751
5736 5736 5735 5736 5736 5738 5738 5739 5740 5741 5742 5743 5743 5744 5745 5745 5745 5746 5746 5747 5747 5748 5748 5749 5750 5751 5751 5752 5752 5753 5753 5753 5753 5753 5754 5754 5754 5753 5753 5753 5753 5753 5753 5753 5753 5753 5753 5753 5753 5753 5752 5752 5751 5751 5750 5750 5750 5750 5749 5749 5749 5748 5748
5732 5732 5731 5732 5732 5733 5734 5735 5736 5737 5738 5739 5740 5741 5742 5743 5744 5744 5744 5744 5745 5745 5746 5746 5747 5748 5749 5749 5749 5750 5750 5750 5750 5750 5750 5750 5750 5750 5750 5750 5750 5750 5750 5750 5750 5750 5750 5750 5749 5749 5749 5749 5748 5748 5747 5746 5746 5746 5745 5745 5744 5744 5743
5729 5728 5728 5729 5729 5729 5730 5731 5733 5734 5735 5736 5737 5738 5739 5740 5741 5742 5742 5742 5742 5743 5743 5744 5744 5745 5745 5746 5746 5746 5746 5746 5746 5747 5747 5746 5746 5746 5746 5746 5746 5747 5747 5747 5747 5747 5746 5746 5745 5745 5745 5744 5744 5743 5743 5742 5742 5741 5740 5740 5739 5739 5738
5725 5725 5725 5726 5726 5726 5726 5728 5730 5731 5732 5733 5734 5735 5736 5737 5738 5739 5740 5740 5740 5739 5740 5740 5741 5742 5742 5742 5742 5743 5743 5743 5743 5743 5743 5743 5743 5743 5743 5743 5743 5743 5743 5743 5743 5743 5743 5742 5741 5740 5740 5739 5739 5738 5738 5737 5737 5736 5735 5735 5734 5734 5733
5721 5721 5722 5723 5724 5723 5723 5724 5726 5728 5729 5730 5731 5732 5733 5734 5735 5735 5736 5736 5736 5736 5737 5737 5737 5738 5738 5738 5738 5739 5739 5739 5739 5739 5739 5739 5739 5739 5739 5739 5739 5739 5739 5739 5739 5739 5739 5738 5738 5737 5736 5735 5735 5734 5733 5733 5732 5732 5731 5730 5730 5729 5728
5719 5719 5719 5720 5721 5721 5721 5721 5722 5723 5725 5726 5727 5728 5729 5730 5731 5732 5732 5733 5733 5733 5733 5733 5733 5734 5734 5734 5734 5734 5734 5735 5735 5735 5735 5734 5734 5734 5734 5734 5734 5734 5735 5734 5734 5734 5734 5733 5732 5732 5732 5732 5731 5730 5729 5729 5728 5728 5727 5726 5725 5724 5723
5718 5717 5717 5718 5719 5719 5719 5719 5719 5720 5720 5721 5723 5725 5726 5726 5727 5728 5728 5729 5729 5729 5729 5729 5729 5729 5729 5729 5729 5729 5730 5730 5730 5730 5730 5730 5730 5729 5729 5729 5729 5729 5729 5729 5729 5728 5728 5727 5726 5727 5727 5727 5726 5725 5724 5724 5723 5723 5722 5721 5721 5720 5718
5716 5715 5715 5716 5716 5716 5716 5716 5716 5717 5717 5718 5719 5721 5722 5722 5722 5723 5723 5724 5724 5724 5724 5724 5725 5725 5724 5724 5724 5725 5725 5725 5725 5725 5725 5724 5724 5724 5724 5724 5724 5724 5724 5724 5723 5723 5722 5722 5722 5722 5721 5721 5721 5720 5719 5718 5717 5717 5716 5716 5716 5714 5713
5712 5712 5713 5713 5713 5713 5714 5714 5714 5714 5714 5715 5715 5716 5718 5718 5718 5719 5719 5719 5720 5720 5720 5719 5720 5720 5719 5719 5720 5720 5720 5720 5720 5720 5720 5720 5719 5719 5719 5719 5718 5718 5719 5719 5718 5717 5717 5718 5717 5716 5715 5715 5714 5713 5713 5712 5711 5709 5709 5710 5709 5708 5707
5709 5709 5709 5709 5710 5709 5709 5709 5710 5710 5710 5711 5711 5712 5713 5713 5714 5714 5714 5714 5715 5715 5714 5714 5714 5714 5714 5714 5714 5715 5714 5715 5715 5714 5714 5714 5714 5714 5714 5713 5713 5713 5713 5713 5712 5712 5713 5714 5713 5711 5709 5707 5707 5707 5707 5706 5704 5702 5702 5703 5702 5701 5701
5705 5705 5705 5706 5707 5707 5705 5705 5705 5705 5705 5706 5707 5707 5707 5708 5708 5708 5708 5709 5709 5709 5708 5708 5708 5708 5708 5707 5708 5708 5708 5708 5708 5707 5707 5708 5708 5708 5708 5707 5707 5707 5707 5707 5706 5707 5708 5709 5708 5706 5703 5700 5700 5701 5700 5698 5697 5696 5696 5696 5695 5694 5693
5699 5700 5700 5701 5702 5703 5702 5701 5701 5701 5701 5701 5701 5702 5702 5702 5702 5702 5702 5702 5702 5702 5702 5701 5701 5701 5701 5700 5700 5701 5700 5700 5700 5700 5700 5700 5700 5701 5700 5700 5700 5700 5700 5700 5700 5701 5702 5702 5701 5700 5697 5694 5693 5692 5691 5690 5689 5689 5688 5688 5688 5687 5686
5693 5694 5695 5695 5695 5696 5697 5697 5696 5696 5696 5695 5695 5695 5695 5695 5695 5695 5694 5695 5695 5694 5694 5694 5693 5693 5693 5693 5692 5693 5693 5693 5692 5692 5693 5693 5693 5693 5692 5692 5692 5691 5691 5692 5692 5693 5694 5694 5695 5694 5690 5686 5685 5684 5684 5683 5681 5680 5680 5681 5681 5680 5679
5687 5687 5688 5688 5689 5689 5690 5690 5690 5690 5690 5689 5689 5688 5688 5688 5688 5688 5687 5687 5687 5687 5687 5687 5687 5686 5685 5685 5684 5684 5685 5685 5684 5684 5685 5685 5685 5685 5684 5684 5684 5683 5682 5683 5683 5684 5684 5685 5687 5686 5681 5678 5677 5677 5677 5676 5673 5672 5673 5673 5673 5673 5672
5681 5681 5681 5681 5681 5682 5682 5682 5682 5682 5682 5682 5682 5682 5682 5682 5681 5681 5681 5680 5680 5680 5680 5679 5679 5678 5677 5676 5676 5676 5676 5676 5675 5675 5675 5676 5676 5676 5675 5675 5674 5673 5673 5673 5673 5674 5675 5675 5676 5675 5672 5670 5669 5669 5668 5666 5664 5665 5665 5665 5665 5665 5665